This is the latest recevied weather packets stored in our database for station/object N2ZVN. If no packets are shown the sender has not sent any weather packets the latest 10 day(s).
| Time | Temp. | Humidity | Pressure | Rain* | Wind** | Luminosity | Snow |
|---|---|---|---|---|---|---|---|
| 1788697450 | 18.33° C | 99% | 1019.5 hPa | 0 mm | - | 46 W/m² | - |
| 1788697147 | 17.78° C | 99% | 1019.5 hPa | 0 mm | - | 25 W/m² | - |
| 1788696843 | 17.78° C | 99% | 1019.5 hPa | 0 mm | - | 22 W/m² | - |
| 1788696539 | 17.22° C | 99% | 1019.4 hPa | 0 mm | - | 32 W/m² | - |
| 1788696235 | 16.67° C | 99% | 1019.5 hPa | 0 mm | - | 36 W/m² | - |
| 1788695931 | 16.11° C | 99% | 1019.5 hPa | 0 mm | - | 43 W/m² | - |
| 1788695626 | 16.11° C | 99% | 1019.3 hPa | 0 mm | - | 25 W/m² | - |
| 1788695325 | 15.56° C | 99% | 1019.3 hPa | 0 mm | - | 17 W/m² | - |
| 1788695020 | 15.56° C | 99% | 1019.1 hPa | 0 mm | - | 30 W/m² | - |
| 1788694715 | 15.56° C | 99% | 1019.1 hPa | 0 mm | - | 25 W/m² | - |
| 1788694414 | 15° C | 99% | 1018.9 hPa | 0 mm | - | 26 W/m² | - |
| 1788694110 | 15° C | 99% | 1019 hPa | 0 mm | - | 23 W/m² | - |
| 1788693806 | 15° C | 99% | 1018.9 hPa | 0 mm | - | 16 W/m² | - |
| 1788693506 | 15° C | 99% | 1018.6 hPa | 0 mm | - | 12 W/m² | - |
| 1788693206 | 14.44° C | 99% | 1018.6 hPa | 0 mm | - | 13 W/m² | - |
| 1788692901 | 14.44° C | 99% | 1018.6 hPa | 0 mm | - | 9 W/m² | - |
| 1788692597 | 14.44° C | 99% | 1018.5 hPa | 0 mm | - | 8 W/m² | - |
| 1788692295 | 14.44° C | 99% | 1018.5 hPa | 0 mm | - | 6 W/m² | - |
| 1788691991 | 14.44° C | 99% | 1018.4 hPa | 0 mm | - | 4 W/m² | - |
| 1788691687 | 14.44° C | 99% | 1018.4 hPa | 0 mm | - | 3 W/m² | - |
| 1788691385 | 14.44° C | 99% | 1018 hPa | 0 mm | - | 2 W/m² | - |
| 1788691084 | 14.44° C | 99% | 1018.3 hPa | 0 mm | - | 1 W/m² | - |
| 1788690783 | 14.44° C | 99% | 1018.2 hPa | 0 mm | - | 1 W/m² | - |
| 1788690479 | 14.44° C | 99% | 1018.2 hPa | 0 mm | - | 0 W/m² | - |
| 1788690178 | 14.44° C | 99% | 1018 hPa | 0 mm | - | 0 W/m² | - |
* Rain latest hour (hover to see other rain measurements)
** Current wind speed in m/s (hover to see current wind gust speed)